[[{"header":{"parameterUnit":"m.s-1","parameterCategory":1,"la1":30.2991,"la2":30.254,"lo1":-89.0895,"lo2":-89.0444,"dy":0.0017,"dx":0.0017,"nx":28,"ny":28,"refTime":"2024-06-04T03:00:00:Z","depth":0,"parameterNumber":2,"parameterNumberName":"U-component_of_WINDS"},"data":[0,0,0,0,0,0,0,0,0,0,0,0,0,0,0,0,0,0,0,0,0,0,0,0,0,0,0,0,0,0,0,0,0,0,0,0,0,0,0,0,0,0,0,0,0,0,0,0,0,0,0,0,0,0,0,0,0,0,-1.037,-1.037,0,-1.0347,-1.0346,-1.0346,-1.0349,-1.0349,-1.0349,-1.035,-1.0326,-1.0325,-1.0324,0,0,0,0,0,0,0,0,0,0,0,0,0,-1.0419,-1.0418,-1.0371,-1.037,-1.037,-1.0347,-1.0346,-1.0346,-1.0349,-1.0349,-1.035,-1.035,-1.0326,-1.0325,-1.0324,0,0,0,0,0,0,0,0,0,0,0,0,0,-1.0397,-1.0418,-1.0371,-1.0368,-1.0368,-1.0347,-1.0346,-1.0346,-1.0349,-1.0349,-1.035,-1.035,-1.0326,-1.0325,-1.0323,-1.0303,0,0,-1.0319,-1.0318,0,0,0,0,0,0,0,0,-1.0398,-1.0395,-1.0369,-1.0369,-1.0368,-1.0351,-1.0355,-1.0331,-1.0348,-1.0356,-1.035,-1.035,-1.0334,-1.0332,-1.0326,-1.0302,-1.0301,-1.0319,-1.0318,-1.0317,-1.0317,0,0,0,0,0,0,0,-1.04,-1.0396,-1.0361,-1.0369,-1.0368,-1.0369,-1.0366,-1.035,-1.0342,-1.0355,-1.0355,-1.0353,-1.0333,-1.0327,-1.0325,-1.03,-1.0319,-1.0317,-1.0316,-1.0316,-1.0258,-1.0257,0,0,0,0,0,0,-1.0402,-1.0398,-1.0362,-1.036,-1.0385,-1.0368,-1.0365,-1.0356,-1.0342,-1.034,-1.0352,-1.0353,-1.033,-1.0327,-1.0324,-1.0299,-1.0317,-1.0316,-1.0315,-1.0258,-1.0258,-1.0257,0,0,0,0,0,0,-1.0403,-1.0399,-1.0363,-1.0379,-1.0374,-1.0366,-1.0356,-1.0355,-1.0349,-1.034,-1.0338,-1.0347,-1.033,-1.0327,-1.0308,-1.0298,-1.0315,-1.0314,-1.0259,-1.0258,-1.0257,-1.0248,0,0,0,0,0,0,-1.0404,-1.0399,-1.0391,-1.0379,-1.0374,-1.0347,-1.0356,-1.0354,-1.0346,-1.0347,-1.0335,-1.0333,-1.033,-1.031,-1.0307,-1.0297,-1.0312,-1.026,-1.0259,-1.0258,-1.025,-1.0247,-1.0245,0,0,0,0,0,-1.0406,-1.0389,-1.039,-1.0386,-1.0363,-1.0346,-1.0343,-1.034,-1.0346,-1.0337,-1.0332,-1.0334,-1.03,-1.0308,-1.0304,-1.0294,-1.0261,-1.0259,-1.0258,-1.0251,-1.0248,-1.0245,0,0,0,0,0,0,-1.0401,-1.0388,-1.0389,-1.0368,-1.0358,-1.0347,-1.0336,-1.0337,-1.0325,-1.0327,-1.0323,-1.032,-1.0301,-1.0296,-1.0305,-1.0273,-1.0281,-1.0279,-1.0277,-1.0274,-1.0272,-1.0274,-1.0311,0,0,0,0,0,-1.0397,-1.0384,-1.0374,-1.0356,-1.0351,-1.0344,-1.0337,-1.0335,-1.0325,-1.0321,-1.0313,-1.0304,-1.0291,-1.0282,-1.027,-1.0249,-1.0246,-1.024,-1.0238,-1.0236,-1.0234,-1.0222,-1.0219,-1.0252,-1.0252,-1.0252,0,0,-1.039,-1.0381,-1.0373,-1.0355,-1.0347,-1.0334,-1.0341,-1.0327,-1.0317,-1.0319,-1.0301,-1.0295,-1.0284,-1.0264,-1.0255,-1.0258,-1.0224,-1.0234,-1.0233,-1.0232,-1.022,-1.0217,-1.0214,-1.0251,-1.0251,-1.0251,0,0,-1.0369,-1.0361,-1.0346,-1.0338,-1.0326,-1.0321,-1.0318,-1.0306,-1.0302,-1.0284,-1.0285,-1.0274,-1.0252,-1.0244,-1.0237,-1.0213,-1.0215,-1.0209,-1.0198,-1.0187,-1.0184,-1.0182,-1.0173,-1.017,-1.0207,-1.0207,-1.0207,0,-1.0361,-1.0341,-1.0338,-1.0323,-1.0315,-1.0316,-1.03,-1.0293,-1.0278,-1.0272,-1.0277,-1.0249,-1.0242,-1.022,-1.0214,-1.0209,-1.0204,-1.021,-1.0185,-1.0182,-1.018,-1.0172,-1.0169,-1.0207,-1.0207,-1.0207,-1.0207,0,-1.0332,-1.0317,-1.0306,-1.0291,-1.0282,-1.0267,-1.0262,-1.0253,-1.0252,-1.0247,-1.0229,-1.022,-1.0206,-1.0201,-1.02,-1.0179,-1.0182,-1.0186,-1.0194,-1.0176,-1.0168,-1.0165,-1.0206,-1.0206,-1.0206,-1.0206,0,0,-1.0307,-1.029,-1.0286,-1.0279,-1.0266,-1.0255,-1.024,-1.0226,-1.0219,-1.0208,-1.0196,-1.0177,-1.0181,-1.0173,-1.0171,-1.0161,-1.0143,-1.0166,-1.0166,-1.0162,-1.0119,-1.0115,-1.0112,-1.0144,-1.0143,-1.0143,-1.0119,0,-1.0284,-1.0257,-1.0254,-1.023,-1.0217,-1.0218,-1.0205,-1.0196,-1.0191,-1.018,-1.0175,-1.0162,-1.0167,-1.0163,-1.0153,-1.0147,-1.0134,-1.0149,-1.0132,-1.0131,-1.0134,-1.0108,-1.0104,-1.0082,-1.0116,-1.0116,-1.0115,0,-1.0255,-1.0243,-1.0217,-1.0206,-1.02,-1.0189,-1.0176,-1.0165,-1.0154,-1.0152,-1.0143,-1.0142,-1.0127,-1.0136,-1.0115,-1.0126,-1.0119,-1.0115,-1.0114,-1.0112,-1.0122,-1.0104,-1.0075,-1.0072,-1.0111,-1.0111,-1.0111,0,-1.0238,-1.0216,-1.0198,-1.0192,-1.0179,-1.017,-1.0164,-1.0155,-1.0146,-1.0135,-1.013,-1.0117,-1.011,-1.0101,-1.0097,-1.0104,-1.0076,-1.0085,-1.0073,-1.0073,-1.0067,-1.0067,-1.0036,-1.0063,-1.0063,-1.0063,-1.0063,0,-1.0214,-1.0198,-1.0191,-1.018,-1.0162,-1.0159,-1.0142,-1.0136,-1.0128,-1.0115,-1.0116,-1.0105,-1.0101,-1.0089,-1.0086,-1.0069,-1.0066,-1.0064,-1.0063,-1.0063,-1.0063,-1.0058,-1.0059,-1.0062,-1.0063,-1.0063,-1.0063,0,-1.0192,-1.0187,-1.0167,-1.0156,-1.0153,-1.014,-1.0131,-1.012,-1.0116,-1.01,-1.0097,-1.009,-1.0076,-1.0071,-1.0055,-1.0053,-1.0033,-1.0034,-1.0036,-1.0036,-1.0024,-1.0025,-0.9988,-0.9983,-1.0014,-1.0014,-1.0014,0,-1.0177,-1.0165,-1.0152,-1.0143,-1.0137,-1.0124,-1.0115,-1.0112,-1.0103,-1.009,-1.0081,-1.0067,-1.0056,-1.0034,-1.0028,-1.0015,-1.0015,-1.0003,-1.0013,-1.0014,-1.0015,-1.0015,-1.0014,-1.0001,-1.0001,-1.0,-1.0,0,-1.0149,-1.0147,-1.0135,-1.0121,-1.0111,-1.01,-1.009,-1.0083,-1.0078,-1.0069,-1.0054,-1.0046,-1.0028,-1.0015,-1.0002,-0.9996,-0.9997,-0.9997,-0.9994,-0.9994,-0.9995,-0.9994,-1.003,-0.9998,-0.9998,-0.9998,-0.9998,-0.9998,-1.013,-1.0119,-1.0108,-1.0094,-1.0086,-1.0077,-1.0066,-1.006,-1.0048,-1.0033,-1.0032,-1.0017,-1.0007,-0.9989,-0.9983,-0.9971,-0.9974,-0.997,-0.9968,-0.9967,-0.9966,-0.9998,-0.9969,-0.9969,-0.9969,-0.9969,-0.9969,0,-1.0102,-1.0095,-1.0083,-1.0068,-1.0057,-1.0059,-1.0048,-1.0039,-1.0025,-1.0015,-1.0004,-0.9988,-0.9974,-0.9967,-0.9954,-0.9946,-0.9946,-0.9942,-0.9943,-0.9941,-0.9964,-0.9968,-0.9942,-0.9942,-0.9942,-0.9942,-0.9942,-0.9942,-1.0087,-1.0068,-1.0065,-1.0042,-1.0036,-1.002,-1.0013,-1.0005,-0.9997,-0.9978,-0.9967,-0.9962,-0.9954,-0.994,-0.9928,-0.9926,-0.9921,-0.9917,-0.9916,-0.9937,-0.994,-0.9942,-0.9946,-0.9916,-0.9916,-0.9894,-0.9894,-0.9894]},{"header":{"parameterUnit":"m.s-1","parameterCategory":1,"la1":30.2991,"la2":30.254,"lo1":-89.0895,"lo2":-89.0444,"dy":0.0017,"dx":0.0017,"nx":28,"ny":28,"refTime":"2024-06-04T03:00:00:Z","depth":0,"parameterNumber":3,"parameterNumberName":"V-component_of_WINDS"},"data":[0,0,0,0,0,0,0,0,0,0,0,0,0,0,0,0,0,0,0,0,0,0,0,0,0,0,0,0,0,0,0,0,0,0,0,0,0,0,0,0,0,0,0,0,0,0,0,0,0,0,0,0,0,0,0,0,0,0,5.1683,5.1683,0,5.1707,5.1707,5.1707,5.1655,5.1653,5.1652,5.165,5.1671,5.1674,5.1676,0,0,0,0,0,0,0,0,0,0,0,0,0,5.1589,5.1591,5.1683,5.1683,5.1684,5.1707,5.1707,5.1707,5.1655,5.1653,5.1651,5.1649,5.1671,5.1673,5.1676,0,0,0,0,0,0,0,0,0,0,0,0,0,5.1623,5.1592,5.1683,5.166,5.1659,5.1707,5.1707,5.1707,5.1656,5.1653,5.1651,5.1648,5.167,5.1673,5.1676,5.1746,0,0,5.1686,5.1687,0,0,0,0,0,0,0,0,5.1621,5.1627,5.1663,5.1662,5.166,5.1675,5.1682,5.172,5.1656,5.1657,5.165,5.1647,5.1675,5.1677,5.1687,5.1747,5.1748,5.1686,5.1688,5.169,5.1691,0,0,0,0,0,0,0,5.1619,5.1625,5.1692,5.1664,5.1662,5.1648,5.165,5.1689,5.1679,5.1656,5.1653,5.1656,5.1673,5.1684,5.1687,5.1749,5.1686,5.1689,5.1691,5.1692,5.1868,5.187,0,0,0,0,0,0,5.162,5.1624,5.1691,5.1693,5.1634,5.1652,5.1654,5.1673,5.1679,5.1677,5.1659,5.1654,5.168,5.1684,5.1688,5.1771,5.169,5.1693,5.1694,5.1865,5.1868,5.1871,0,0,0,0,0,0,5.1618,5.1626,5.169,5.1657,5.1664,5.1656,5.1678,5.1675,5.1686,5.168,5.1678,5.1672,5.1678,5.1683,5.1732,5.1771,5.1694,5.1697,5.1862,5.1866,5.187,5.1937,0,0,0,0,0,0,5.1616,5.1626,5.1653,5.1658,5.1666,5.1736,5.168,5.1677,5.1692,5.1686,5.1692,5.1691,5.1677,5.1728,5.1736,5.1774,5.1699,5.1858,5.1863,5.1868,5.1931,5.1943,5.1952,0,0,0,0,0,5.1612,5.1671,5.1655,5.1664,5.1701,5.1738,5.1743,5.1726,5.1695,5.1722,5.1719,5.1691,5.1765,5.1733,5.1742,5.1781,5.1856,5.1862,5.1868,5.1926,5.194,5.1952,0,0,0,0,0,0,5.1669,5.1671,5.1654,5.1715,5.1727,5.1729,5.1763,5.1741,5.1761,5.1755,5.1732,5.1734,5.1787,5.1789,5.1754,5.1849,5.1805,5.1813,5.1847,5.186,5.187,5.1869,5.1702,0,0,0,0,0,5.1689,5.172,5.172,5.1774,5.1781,5.1771,5.1787,5.1773,5.1784,5.1788,5.1788,5.1799,5.1825,5.1842,5.1866,5.1931,5.1931,5.1962,5.1973,5.1982,5.1989,5.2024,5.2037,5.1891,5.1891,5.1891,0,0,5.173,5.1735,5.1756,5.1786,5.1793,5.1825,5.1776,5.1812,5.1835,5.1793,5.184,5.1841,5.1851,5.1909,5.1934,5.1912,5.2029,5.1989,5.1997,5.1999,5.2031,5.2045,5.2058,5.1895,5.1895,5.1894,0,0,5.1821,5.1828,5.1875,5.1884,5.1896,5.1889,5.19,5.1906,5.1905,5.1952,5.1921,5.1948,5.1993,5.2002,5.2012,5.2107,5.2083,5.2116,5.2172,5.2206,5.2217,5.2227,5.2262,5.2274,5.2123,5.2123,5.2123,0,5.187,5.1919,5.1901,5.194,5.1953,5.1918,5.1965,5.1974,5.1993,5.2003,5.1977,5.2034,5.2038,5.2097,5.2121,5.213,5.2142,5.2115,5.2217,5.2227,5.2236,5.2269,5.2281,5.2127,5.2126,5.2126,5.2126,0,5.1979,5.2013,5.2049,5.2069,5.2087,5.2129,5.2117,5.2137,5.2122,5.2117,5.2165,5.2169,5.2193,5.2206,5.2191,5.2263,5.2249,5.2221,5.2176,5.2255,5.2284,5.2297,5.2133,5.2131,5.213,5.2129,0,0,5.2107,5.2117,5.2131,5.214,5.2151,5.2177,5.2217,5.2241,5.2259,5.2273,5.2306,5.2345,5.232,5.2332,5.2317,5.2347,5.2422,5.2315,5.2315,5.2335,5.2503,5.2524,5.2539,5.2406,5.2408,5.241,5.2502,0,5.2198,5.2269,5.2254,5.2323,5.2354,5.2321,5.2356,5.2366,5.2363,5.2388,5.2383,5.2412,5.2376,5.2383,5.2411,5.2407,5.2456,5.24,5.2436,5.2437,5.2435,5.2554,5.2577,5.2664,5.2513,5.2515,5.2517,0,5.2313,5.2333,5.2406,5.2413,5.2425,5.2457,5.2478,5.2503,5.2514,5.2509,5.2523,5.2502,5.2542,5.2496,5.255,5.2513,5.2526,5.2527,5.253,5.2532,5.2482,5.2561,5.2691,5.2704,5.2535,5.2534,5.2532,0,5.24,5.2445,5.2494,5.2503,5.2512,5.2535,5.254,5.2548,5.2564,5.2582,5.2592,5.2614,5.2626,5.2643,5.2629,5.2597,5.2685,5.2638,5.2682,5.2682,5.2702,5.2701,5.2837,5.2711,5.271,5.271,5.271,0,5.2503,5.2549,5.2533,5.2564,5.2614,5.2596,5.2646,5.2646,5.2654,5.2683,5.2655,5.2683,5.2663,5.2689,5.2678,5.2724,5.2729,5.2726,5.2723,5.2729,5.273,5.2738,5.2732,5.2714,5.2713,5.2712,5.2712,0,5.2609,5.26,5.2652,5.2656,5.2658,5.2695,5.2698,5.2726,5.2721,5.2758,5.2766,5.2758,5.2787,5.2774,5.2805,5.2797,5.2857,5.2845,5.2854,5.2851,5.2895,5.2891,5.3041,5.306,5.2922,5.2923,5.2924,0,5.2676,5.271,5.2719,5.2737,5.2744,5.2773,5.279,5.2773,5.279,5.2805,5.2831,5.2858,5.2879,5.2927,5.2923,5.2946,5.2935,5.2986,5.2938,5.2943,5.2936,5.2934,5.2938,5.2995,5.2997,5.2998,5.2999,0,5.2795,5.2789,5.2814,5.2838,5.2859,5.2876,5.2891,5.2907,5.2891,5.2912,5.2942,5.2959,5.299,5.3017,5.3037,5.3041,5.3018,5.3014,5.3026,5.3033,5.3036,5.3035,5.288,5.3011,5.301,5.3009,5.3008,5.3008,5.2884,5.2913,5.2924,5.2953,5.2962,5.2977,5.3004,5.3002,5.3027,5.3052,5.304,5.3075,5.3085,5.311,5.3117,5.3143,5.3123,5.3139,5.3143,5.3148,5.3154,5.3032,5.3147,5.3146,5.3146,5.3146,5.3145,0,5.3002,5.3008,5.3034,5.3057,5.3079,5.3056,5.3072,5.3092,5.3123,5.3134,5.3155,5.319,5.3216,5.3214,5.3238,5.3259,5.3249,5.3266,5.3265,5.3266,5.317,5.3158,5.3274,5.3274,5.3274,5.3274,5.3274,5.3274,5.3067,5.3116,5.3111,5.3164,5.3168,5.3203,5.3214,5.3227,5.3236,5.3276,5.3298,5.3297,5.3303,5.3327,5.335,5.3348,5.3358,5.338,5.3374,5.3285,5.3273,5.326,5.3249,5.3382,5.3382,5.3467,5.3468,5.3469]}]]